Satellite: LO-19
Catalog number: 20442
Epoch time:      05181.63692387
Element set:     428
Inclination:      098.2220 deg
RA of node:       214.9681 deg
Eccentricity:    0.0012139
Arg of perigee:   157.2060 deg
Mean anomaly:     202.9670 deg
Mean motion:   14.31927004 rev/day
Decay rate:        2.7e-07 rev/day^2
Epoch rev:           80614
Checksum:              282

Satellite: UO-22
Catalog number: 21575
Epoch time:      05181.54897142
Element set:     442
Inclination:      098.2436 deg
RA of node:       146.3794 deg
Eccentricity:    0.0008283
Arg of perigee:   055.2380 deg
Mean anomaly:     304.9592 deg
Mean motion:   14.39493247 rev/day
Decay rate:        6.5e-07 rev/day^2
Epoch rev:           73242
Checksum:              317

Satellite: KO-23
Catalog number: 22077
Epoch time:      05180.81354813
Element set:     510
Inclination:      066.0859 deg
RA of node:       120.0094 deg
Eccentricity:    0.0015568
Arg of perigee:   253.4404 deg
Mean anomaly:     106.4902 deg
Mean motion:   12.86431729 rev/day
Decay rate:       -3.7e-07 rev/day^2
Epoch rev:           60521
Checksum:              274

Satellite: AO-27
Catalog number: 22825
Epoch time:      05179.74805754
Element set:     164
Inclination:      098.2505 deg
RA of node:       174.6364 deg
Eccentricity:    0.0007706
Arg of perigee:   223.5710 deg
Mean anomaly:     136.4865 deg
Mean motion:   14.29133628 rev/day
Decay rate:      -1.01e-06 rev/day^2
Epoch rev:           61287
Checksum:              310

Satellite: IO-26
Catalog number: 22826
Epoch time:      05181.52776529
Element set:     836
Inclination:      098.2457 deg
RA of node:       177.6028 deg
Eccentricity:    0.0008001
Arg of perigee:   218.6650 deg
Mean anomaly:     141.3964 deg
Mean motion:   14.29375258 rev/day
Decay rate:        4.0e-08 rev/day^2
Epoch rev:           61319
Checksum:              316

Satellite: KO-25
Catalog number: 22828
Epoch time:      05181.31219405
Element set:      85
Inclination:      098.2428 deg
RA of node:       177.5949 deg
Eccentricity:    0.0009000
Arg of perigee:   196.3591 deg
Mean anomaly:     163.7295 deg
Mean motion:   14.29687760 rev/day
Decay rate:        2.1e-07 rev/day^2
Epoch rev:           58139
Checksum:              323

Satellite: TO-31
Catalog number: 25396
Epoch time:      05181.13091083
Element set:     285
Inclination:      098.5279 deg
RA of node:       247.9917 deg
Eccentricity:    0.0003550
Arg of perigee:   130.7591 deg
Mean anomaly:     229.3907 deg
Mean motion:   14.23673999 rev/day
Decay rate:       -4.2e-07 rev/day^2
Epoch rev:           36225
Checksum:              323

Satellite: GO-32
Catalog number: 25397
Epoch time:      05181.50195435
Element set:     773
Inclination:      098.5182 deg
RA of node:       245.8429 deg
Eccentricity:    0.0002082
Arg of perigee:   136.7764 deg
Mean anomaly:     223.3582 deg
Mean motion:   14.23082428 rev/day
Decay rate:       1.32e-06 rev/day^2
Epoch rev:           36222
Checksum:              298

Satellite: UO-36
Catalog number: 25693
Epoch time:      05181.66361224
Element set:     339
Inclination:      064.5573 deg
RA of node:       242.3245 deg
Eccentricity:    0.0023870
Arg of perigee:   210.8105 deg
Mean anomaly:     149.1600 deg
Mean motion:   14.78515391 rev/day
Decay rate:      -1.18e-06 rev/day^2
Epoch rev:           33381
Checksum:              287

Satellite: SO-41
Catalog number: 26545
Epoch time:      05180.81363555
Element set:     111
Inclination:      064.5580 deg
RA of node:       259.0634 deg
Eccentricity:    0.0049619
Arg of perigee:   303.9656 deg
Mean anomaly:     055.6762 deg
Mean motion:   14.80115057 rev/day
Decay rate:        6.1e-07 rev/day^2
Epoch rev:           25679
Checksum:              308

Satellite: MO-46
Catalog number: 26548
Epoch time:      05181.61128225
Element set:     220
Inclination:      064.5570 deg
RA of node:       238.9923 deg
Eccentricity:    0.0046205
Arg of perigee:   296.3336 deg
Mean anomaly:     063.3040 deg
Mean motion:   14.82746977 rev/day
Decay rate:        4.3e-07 rev/day^2
Epoch rev:           25727
Checksum:              305

Satellite: SO-42
Catalog number: 26549
Epoch time:      05181.21881465
Element set:     176
Inclination:      064.5582 deg
RA of node:       266.5095 deg
Eccentricity:    0.0051294
Arg of perigee:   308.1152 deg
Mean anomaly:     051.5342 deg
Mean motion:   14.78994219 rev/day
Decay rate:       1.32e-06 rev/day^2
Epoch rev:           25668
Checksum:              317

Satellite: NO-44
Catalog number: 26931
Epoch time:      05180.28393593
Element set:      70
Inclination:      067.0513 deg
RA of node:       196.6371 deg
Eccentricity:    0.0005974
Arg of perigee:   257.9500 deg
Mean anomaly:     102.0907 deg
Mean motion:   14.29388179 rev/day
Decay rate:       -8.0e-07 rev/day^2
Epoch rev:           19549
Checksum:              319

Satellite: AO-49
Catalog number: 27605
Epoch time:      05181.23767594
Element set:     774
Inclination:      064.5576 deg
RA of node:       095.6509 deg
Eccentricity:    0.0080938
Arg of perigee:   237.5136 deg
Mean anomaly:     121.8138 deg
Mean motion:   14.72102154 rev/day
Decay rate:       -1.0e-08 rev/day^2
Epoch rev:           13577
Checksum:              319

